Flag for U.S.A. Weather past 2 weeks in Lynchburg, Virginia, U.S.A.

Now
46 °F

Clear.


Feels Like: 46 °F
Forecast: 41 / 49 °F
Wind: No wind

Location: Lynchburg Regional Airport

Current Time: Apr 25, 2015 at 12:56:42 AM

Latest Report: Apr 24, 2015 at 11:54 PM


Visibility: 10 mi

Pressure: 29.96 "Hg

Humidity: 54%

Dew point: 30 °F

Location of LynchburgLocation

Historic Weather in Lynchburg — Graph

°F

Lynchburg temperature yesterday

Maximum temperature yesterday: 64 °F (at 3:54 PM)
Minimum temperature yesterday: 34 °F (at 6:54 AM)
Average temperature yesterday: 51 °F

Past Weeks' High & Low Weather Summary

 TemperatureHumidityPressure
High79 °F (Apr 18, 3:54 PM)100% (Apr 9, 11:54 PM)30.40 "Hg (Apr 9, 11:54 PM)
Low34 °F (Apr 24, 6:54 AM)14% (Apr 24, 2:54 PM)29.53 "Hg (Apr 20, 4:54 PM)
Average59 °F63%30.02 "Hg
* Reported Apr 9 11:54 PM — Apr 24 11:54 PM, Lynchburg, Weather by CustomWeather, © 2015

Note: Actual official high and low records may vary slightly from our data, if they occured in-between our weather recording intervals... More about our weather records

Advertising

Lynchburg weather history for previous 24 hours

 ConditionsComfort  
Time TempWeatherWind HumidityBarometerVisibility
11:54 PM
Fri, Apr 24
46 °FClear.No wind54%29.96 "Hg10 mi
10:54 PM50 °FClear.No wind32%29.96 "Hg10 mi
9:54 PM50 °FClear.3 mph38%29.98 "Hg10 mi
8:54 PM51 °FSunny.No wind32%29.96 "Hg10 mi
7:54 PM55 °FSunny.No wind31%29.95 "Hg10 mi
6:54 PM62 °FSunny.6 mph16%29.93 "Hg10 mi
5:54 PM63 °FSunny.9 mph15%29.94 "Hg10 mi
4:54 PM64 °FSunny.8 mph14%29.93 "Hg10 mi
3:54 PM64 °FSunny.7 mph15%29.94 "Hg10 mi
2:54 PM63 °FSunny.10 mph14%29.98 "Hg10 mi
1:54 PM62 °FSunny.13 mph16%29.98 "Hg10 mi
12:54 PM57 °FSunny.3 mph20%30.02 "Hg10 mi
11:54 AM55 °FSunny.9 mph22%30.04 "Hg10 mi
10:54 AM52 °FSunny.9 mph25%30.06 "Hg10 mi
9:54 AM50 °FSunny.3 mph29%30.05 "Hg10 mi
8:54 AM49 °FSunny.5 mph28%30.04 "Hg10 mi
7:54 AM44 °FSunny.No wind63%30.04 "Hg10 mi
6:54 AM34 °FClear.No wind76%30.04 "Hg10 mi
5:54 AM37 °FClear.No wind62%30.02 "Hg10 mi
4:54 AM45 °FClear.6 mph40%29.99 "Hg10 mi
3:54 AM41 °FClear.5 mph53%30.00 "Hg10 mi
2:54 AM42 °FClear.No wind53%29.98 "Hg10 mi
1:54 AM48 °FPassing clouds.6 mph36%29.98 "Hg10 mi
12:54 AM49 °FClear.5 mph32%29.97 "Hg10 mi
Weather by CustomWeather, © 2015

See weather overviewHow to use our weather pages